﻿測定場所 (Monitoring sites),日付 (Measurement date),時間 (Measurement time),線量率 最大値 (max) μGy/h,線量率 最小値 (min) μGy/h,線量率 平均値 (average) μGy/h,
江戸川 (Edogawa),2017-06-18,23:01～24:00,0.0592,0.0529,0.0563,
江戸川 (Edogawa),2017-06-18,22:01～23:00,0.0653,0.0551,0.0588,
江戸川 (Edogawa),2017-06-18,21:01～22:00,0.0645,0.0551,0.0596,
江戸川 (Edogawa),2017-06-18,20:01～21:00,0.0629,0.0553,0.0585,
江戸川 (Edogawa),2017-06-18,19:01～20:00,0.0641,0.0568,0.0606,
江戸川 (Edogawa),2017-06-18,18:01～19:00,0.0633,0.0568,0.0601,
江戸川 (Edogawa),2017-06-18,17:01～18:00,0.0628,0.0549,0.0597,
江戸川 (Edogawa),2017-06-18,16:01～17:00,0.0652,0.0565,0.0607,
江戸川 (Edogawa),2017-06-18,15:01～16:00,0.0660,0.0591,0.0629,
江戸川 (Edogawa),2017-06-18,14:01～15:00,0.0658,0.0555,0.0616,
江戸川 (Edogawa),2017-06-18,13:01～14:00,0.0602,0.0515,0.0560,
江戸川 (Edogawa),2017-06-18,12:01～13:00,0.0592,0.0532,0.0559,
江戸川 (Edogawa),2017-06-18,11:01～12:00,0.0599,0.0528,0.0560,
江戸川 (Edogawa),2017-06-18,10:01～11:00,0.0587,0.0520,0.0554,
江戸川 (Edogawa),2017-06-18,09:01～10:00,0.0602,0.0517,0.0560,
江戸川 (Edogawa),2017-06-18,08:01～09:00,0.0597,0.0517,0.0559,
江戸川 (Edogawa),2017-06-18,07:01～08:00,0.0611,0.0527,0.0563,
江戸川 (Edogawa),2017-06-18,06:01～07:00,0.0614,0.0525,0.0557,
江戸川 (Edogawa),2017-06-18,05:01～06:00,0.0586,0.0534,0.0561,
江戸川 (Edogawa),2017-06-18,04:01～05:00,0.0590,0.0535,0.0561,
江戸川 (Edogawa),2017-06-18,03:01～04:00,0.0591,0.0531,0.0561,
江戸川 (Edogawa),2017-06-18,02:01～03:00,0.0595,0.0522,0.0560,
江戸川 (Edogawa),2017-06-18,01:01～02:00,0.0604,0.0529,0.0563,
江戸川 (Edogawa),2017-06-18,00:01～01:00,0.0608,0.0528,0.0562,
江戸川 (Edogawa),2017-06-17,23:01～24:00,0.0589,0.0531,0.0559,
江戸川 (Edogawa),2017-06-17,22:01～23:00,0.0605,0.0522,0.0560,
江戸川 (Edogawa),2017-06-17,21:01～22:00,0.0592,0.0522,0.0563,
江戸川 (Edogawa),2017-06-17,20:01～21:00,0.0603,0.0534,0.0562,
江戸川 (Edogawa),2017-06-17,19:01～20:00,0.0603,0.0524,0.0561,
江戸川 (Edogawa),2017-06-17,18:01～19:00,0.0594,0.0528,0.0553,
江戸川 (Edogawa),2017-06-17,17:01～18:00,0.0593,0.0516,0.0560,
江戸川 (Edogawa),2017-06-17,16:01～17:00,0.0599,0.0532,0.0562,
江戸川 (Edogawa),2017-06-17,15:01～16:00,0.0587,0.0526,0.0555,
江戸川 (Edogawa),2017-06-17,14:01～15:00,0.0591,0.0532,0.0556,
江戸川 (Edogawa),2017-06-17,13:01～14:00,0.0599,0.0529,0.0558,
江戸川 (Edogawa),2017-06-17,12:01～13:00,0.0586,0.0533,0.0561,
江戸川 (Edogawa),2017-06-17,11:01～12:00,0.0593,0.0530,0.0558,
江戸川 (Edogawa),2017-06-17,10:01～11:00,0.0594,0.0528,0.0560,
江戸川 (Edogawa),2017-06-17,09:01～10:00,0.0602,0.0515,0.0562,
江戸川 (Edogawa),2017-06-17,08:01～09:00,0.0611,0.0538,0.0564,
江戸川 (Edogawa),2017-06-17,07:01～08:00,0.0593,0.0517,0.0559,
江戸川 (Edogawa),2017-06-17,06:01～07:00,0.0588,0.0522,0.0558,
江戸川 (Edogawa),2017-06-17,05:01～06:00,0.0598,0.0528,0.0558,
江戸川 (Edogawa),2017-06-17,04:01～05:00,0.0593,0.0531,0.0561,
江戸川 (Edogawa),2017-06-17,03:01～04:00,0.0595,0.0525,0.0559,
江戸川 (Edogawa),2017-06-17,02:01～03:00,0.0597,0.0512,0.0560,
江戸川 (Edogawa),2017-06-17,01:01～02:00,0.0583,0.0531,0.0560,
江戸川 (Edogawa),2017-06-17,00:01～01:00,0.0591,0.0538,0.0561,
江戸川 (Edogawa),2017-06-16,23:01～24:00,0.0597,0.0519,0.0557,
江戸川 (Edogawa),2017-06-16,22:01～23:00,0.0619,0.0525,0.0561,
江戸川 (Edogawa),2017-06-16,21:01～22:00,0.0604,0.0531,0.0557,
江戸川 (Edogawa),2017-06-16,20:01～21:00,0.0613,0.0525,0.0558,
江戸川 (Edogawa),2017-06-16,19:01～20:00,0.0594,0.0535,0.0565,
江戸川 (Edogawa),2017-06-16,18:01～19:00,0.0616,0.0539,0.0575,
江戸川 (Edogawa),2017-06-16,17:01～18:00,0.0615,0.0537,0.0572,
江戸川 (Edogawa),2017-06-16,16:01～17:00,0.0603,0.0517,0.0562,
江戸川 (Edogawa),2017-06-16,15:01～16:00,0.0610,0.0535,0.0560,
江戸川 (Edogawa),2017-06-16,14:01～15:00,0.0599,0.0518,0.0560,
江戸川 (Edogawa),2017-06-16,13:01～14:00,0.0589,0.0532,0.0561,
江戸川 (Edogawa),2017-06-16,12:01～13:00,0.0584,0.0516,0.0555,
江戸川 (Edogawa),2017-06-16,11:01～12:00,0.0590,0.0522,0.0556,
江戸川 (Edogawa),2017-06-16,10:01～11:00,0.0587,0.0519,0.0557,
江戸川 (Edogawa),2017-06-16,09:01～10:00,0.0596,0.0529,0.0553,
江戸川 (Edogawa),2017-06-16,08:01～09:00,0.0587,0.0510,0.0555,
江戸川 (Edogawa),2017-06-16,07:01～08:00,0.0590,0.0530,0.0559,
江戸川 (Edogawa),2017-06-16,06:01～07:00,0.0596,0.0519,0.0558,
江戸川 (Edogawa),2017-06-16,05:01～06:00,0.0585,0.0524,0.0558,
江戸川 (Edogawa),2017-06-16,04:01～05:00,0.0598,0.0519,0.0555,
江戸川 (Edogawa),2017-06-16,03:01～04:00,0.0580,0.0534,0.0555,
江戸川 (Edogawa),2017-06-16,02:01～03:00,0.0583,0.0522,0.0549,
江戸川 (Edogawa),2017-06-16,01:01～02:00,0.0580,0.0515,0.0554,
江戸川 (Edogawa),2017-06-16,00:01～01:00,0.0593,0.0506,0.0551,
江戸川 (Edogawa),2017-06-15,23:01～24:00,0.0582,0.0516,0.0549,
江戸川 (Edogawa),2017-06-15,22:01～23:00,0.0600,0.0521,0.0549,
江戸川 (Edogawa),2017-06-15,21:01～22:00,0.0575,0.0523,0.0550,
江戸川 (Edogawa),2017-06-15,20:01～21:00,0.0587,0.0524,0.0554,
江戸川 (Edogawa),2017-06-15,19:01～20:00,0.0580,0.0526,0.0553,
江戸川 (Edogawa),2017-06-15,18:01～19:00,0.0592,0.0510,0.0556,
江戸川 (Edogawa),2017-06-15,17:01～18:00,0.0585,0.0519,0.0552,
江戸川 (Edogawa),2017-06-15,16:01～17:00,0.0576,0.0517,0.0551,
江戸川 (Edogawa),2017-06-15,15:01～16:00,0.0586,0.0519,0.0552,
江戸川 (Edogawa),2017-06-15,14:01～15:00,0.0581,0.0518,0.0553,
江戸川 (Edogawa),2017-06-15,13:01～14:00,0.0593,0.0519,0.0552,
江戸川 (Edogawa),2017-06-15,12:01～13:00,0.0580,0.0515,0.0548,
江戸川 (Edogawa),2017-06-15,11:01～12:00,0.0586,0.0520,0.0551,
江戸川 (Edogawa),2017-06-15,10:01～11:00,0.0586,0.0516,0.0549,
江戸川 (Edogawa),2017-06-15,09:01～10:00,0.0598,0.0518,0.0544,
江戸川 (Edogawa),2017-06-15,08:01～09:00,0.0574,0.0503,0.0546,
江戸川 (Edogawa),2017-06-15,07:01～08:00,0.0583,0.0514,0.0547,
江戸川 (Edogawa),2017-06-15,06:01～07:00,0.0579,0.0502,0.0545,
江戸川 (Edogawa),2017-06-15,05:01～06:00,0.0571,0.0520,0.0547,
江戸川 (Edogawa),2017-06-15,04:01～05:00,0.0590,0.0509,0.0545,
江戸川 (Edogawa),2017-06-15,03:01～04:00,0.0575,0.0514,0.0544,
江戸川 (Edogawa),2017-06-15,02:01～03:00,0.0580,0.0518,0.0546,
江戸川 (Edogawa),2017-06-15,01:01～02:00,0.0582,0.0517,0.0544,
江戸川 (Edogawa),2017-06-15,00:01～01:00,0.0574,0.0517,0.0547,
江戸川 (Edogawa),2017-06-14,23:01～24:00,0.0581,0.0500,0.0543,
江戸川 (Edogawa),2017-06-14,22:01～23:00,0.0567,0.0502,0.0544,
江戸川 (Edogawa),2017-06-14,21:01～22:00,0.0571,0.0520,0.0544,
江戸川 (Edogawa),2017-06-14,20:01～21:00,0.0582,0.0505,0.0544,
江戸川 (Edogawa),2017-06-14,19:01～20:00,0.0594,0.0502,0.0545,
江戸川 (Edogawa),2017-06-14,18:01～19:00,0.0574,0.0501,0.0544,
江戸川 (Edogawa),2017-06-14,17:01～18:00,0.0576,0.0508,0.0546,
江戸川 (Edogawa),2017-06-14,16:01～17:00,0.0581,0.0490,0.0543,
江戸川 (Edogawa),2017-06-14,15:01～16:00,0.0569,0.0513,0.0543,
江戸川 (Edogawa),2017-06-14,14:01～15:00,0.0580,0.0500,0.0543,
江戸川 (Edogawa),2017-06-14,13:01～14:00,0.0584,0.0520,0.0543,
江戸川 (Edogawa),2017-06-14,12:01～13:00,0.0580,0.0505,0.0543,
江戸川 (Edogawa),2017-06-14,11:01～12:00,0.0573,0.0502,0.0543,
江戸川 (Edogawa),2017-06-14,10:01～11:00,0.0572,0.0512,0.0542,
江戸川 (Edogawa),2017-06-14,09:01～10:00,0.0574,0.0508,0.0544,
江戸川 (Edogawa),2017-06-14,08:01～09:00,0.0569,0.0508,0.0544,
江戸川 (Edogawa),2017-06-14,07:01～08:00,0.0584,0.0499,0.0541,
江戸川 (Edogawa),2017-06-14,06:01～07:00,0.0559,0.0494,0.0533,
江戸川 (Edogawa),2017-06-14,05:01～06:00,0.0572,0.0504,0.0536,
江戸川 (Edogawa),2017-06-14,04:01～05:00,0.0578,0.0509,0.0543,
江戸川 (Edogawa),2017-06-14,03:01～04:00,0.0591,0.0517,0.0561,
江戸川 (Edogawa),2017-06-14,02:01～03:00,0.0644,0.0559,0.0603,
江戸川 (Edogawa),2017-06-14,01:01～02:00,0.0639,0.0557,0.0598,
江戸川 (Edogawa),2017-06-14,00:01～01:00,0.0621,0.0530,0.0571,
江戸川 (Edogawa),2017-06-13,23:01～24:00,0.0591,0.0536,0.0558,
江戸川 (Edogawa),2017-06-13,22:01～23:00,0.0590,0.0511,0.0551,
江戸川 (Edogawa),2017-06-13,21:01～22:00,0.0593,0.0510,0.0554,
江戸川 (Edogawa),2017-06-13,20:01～21:00,0.0589,0.0524,0.0554,
江戸川 (Edogawa),2017-06-13,19:01～20:00,0.0598,0.0537,0.0569,
江戸川 (Edogawa),2017-06-13,18:01～19:00,0.0608,0.0535,0.0565,
江戸川 (Edogawa),2017-06-13,17:01～18:00,0.0610,0.0528,0.0571,
江戸川 (Edogawa),2017-06-13,16:01～17:00,0.0599,0.0541,0.0569,
江戸川 (Edogawa),2017-06-13,15:01～16:00,0.0629,0.0554,0.0583,
江戸川 (Edogawa),2017-06-13,14:01～15:00,0.0614,0.0540,0.0583,
江戸川 (Edogawa),2017-06-13,13:01～14:00,0.0626,0.0556,0.0583,
江戸川 (Edogawa),2017-06-13,12:01～13:00,0.0630,0.0543,0.0583,
江戸川 (Edogawa),2017-06-13,11:01～12:00,0.0610,0.0533,0.0570,
江戸川 (Edogawa),2017-06-13,10:01～11:00,0.0592,0.0522,0.0550,
江戸川 (Edogawa),2017-06-13,09:01～10:00,0.0588,0.0529,0.0557,
江戸川 (Edogawa),2017-06-13,08:01～09:00,0.0611,0.0530,0.0564,
江戸川 (Edogawa),2017-06-13,07:01～08:00,0.0611,0.0539,0.0577,
江戸川 (Edogawa),2017-06-13,06:01～07:00,0.0633,0.0555,0.0598,
江戸川 (Edogawa),2017-06-13,05:01～06:00,0.0652,0.0565,0.0610,
江戸川 (Edogawa),2017-06-13,04:01～05:00,0.0646,0.0567,0.0600,
江戸川 (Edogawa),2017-06-13,03:01～04:00,0.0636,0.0532,0.0587,
江戸川 (Edogawa),2017-06-13,02:01～03:00,0.0606,0.0532,0.0568,
江戸川 (Edogawa),2017-06-13,01:01～02:00,0.0621,0.0543,0.0568,
江戸川 (Edogawa),2017-06-13,00:01～01:00,0.0597,0.0525,0.0566,
江戸川 (Edogawa),2017-06-12,23:01～24:00,0.0604,0.0526,0.0562,
江戸川 (Edogawa),2017-06-12,22:01～23:00,0.0600,0.0539,0.0566,
江戸川 (Edogawa),2017-06-12,21:01～22:00,0.0611,0.0529,0.0565,
江戸川 (Edogawa),2017-06-12,20:01～21:00,0.0599,0.0530,0.0566,
江戸川 (Edogawa),2017-06-12,19:01～20:00,0.0602,0.0526,0.0564,
江戸川 (Edogawa),2017-06-12,18:01～19:00,0.0595,0.0532,0.0565,
江戸川 (Edogawa),2017-06-12,17:01～18:00,0.0601,0.0531,0.0566,
江戸川 (Edogawa),2017-06-12,16:01～17:00,0.0603,0.0525,0.0564,
江戸川 (Edogawa),2017-06-12,15:01～16:00,0.0628,0.0537,0.0569,
江戸川 (Edogawa),2017-06-12,14:01～15:00,0.0601,0.0532,0.0568,
江戸川 (Edogawa),2017-06-12,13:01～14:00,0.0610,0.0521,0.0564,
江戸川 (Edogawa),2017-06-12,12:01～13:00,0.0617,0.0534,0.0568,
江戸川 (Edogawa),2017-06-12,11:01～12:00,0.0601,0.0532,0.0567,
江戸川 (Edogawa),2017-06-12,10:01～11:00,0.0602,0.0534,0.0564,
江戸川 (Edogawa),2017-06-12,09:01～10:00,0.0608,0.0534,0.0568,
江戸川 (Edogawa),2017-06-12,08:01～09:00,0.0600,0.0540,0.0568,
江戸川 (Edogawa),2017-06-12,07:01～08:00,0.0598,0.0538,0.0566,
江戸川 (Edogawa),2017-06-12,06:01～07:00,0.0595,0.0536,0.0566,
江戸川 (Edogawa),2017-06-12,05:01～06:00,0.0597,0.0526,0.0563,
江戸川 (Edogawa),2017-06-12,04:01～05:00,0.0610,0.0532,0.0566,
江戸川 (Edogawa),2017-06-12,03:01～04:00,0.0605,0.0524,0.0569,
江戸川 (Edogawa),2017-06-12,02:01～03:00,0.0612,0.0528,0.0568,
江戸川 (Edogawa),2017-06-12,01:01～02:00,0.0599,0.0527,0.0566,
江戸川 (Edogawa),2017-06-12,00:01～01:00,0.0609,0.0535,0.0564,
